Location: Newark
(13.6797°N, 8.5297°E)
Time: 02:09:47
(UTC+00:00)

Courier 1B Rocket - Pass Details

Date: 23 January 2020
Orbit: 920 x 1202 km, 28.2° (Epoch: 25 February)

Event Time Altitude Azimuth Distance (km) Brightness Sun altitude
Rises 20:28:10 0° 264° (W) 3,555 8.7 -44.4°
Reaches altitude 10° 20:32:12 10° 239° (WSW) 2,637 7.8 -45.3°
Enters shadow 20:34:06 13° 222° (SW) 2,428 7.5 -45.8°
